Regional Weather Roundup
Issued by NWS

Home | Current Version | Previous Version | Text Only | Print | Product List | Glossary On
Versions: 1 2 3 4 5 6 7 8 9 10 11 12 13 14 15 16 17 18 19 20 21 22 23 24 25 26 27 28 29 30 31 32 33 34 35 36 37 38 39 40 41 42 43 44 45 46 47 48 49 50
000
ASUS42 KTBW 061017
RWRFL
FLORIDA REGIONAL WEATHER ROUNDUP
NATIONAL WEATHER SERVICE TAMPA BAY RUSKIN FL
600 AM EDT MON JUL 06 2015

NOTE: "FAIR" INDICATES FEW OR NO CLOUDS BELOW 12,000 FEET WITH NO
SIGNIFICANT WEATHER AND/OR OBSTRUCTIONS TO VISIBILITY.


FLZ001>010-012>015-112-114-115-061100-
PANHANDLE FLORIDA

CITY           SKY/WX    TMP DP  RH WIND       PRES   REMARKS
PENSACOLA      PTCLDY    71  69  93 CALM      30.11R
PENSACOLA NAS  MOCLDY    71  68  90 CALM      30.11R
MILTON NAS     PTCLDY    68  67  96 NW5       30.12
CRESTVIEW      PTCLDY    68  67  96 N3        30.13R
DUKE FIELD     FAIR      70  66  87 CALM      30.11R
VALPARAISO     MOCLDY    72  67  85 W3        30.11S
MARY ESTHER    MOCLDY    74  67  80 NW2       30.10S
TRI COUNTY     FAIR      69  68  96 CALM      30.12S
PANAMA CITY    FAIR      72  70  93 NW5       30.11R
TYNDALL AFB    CLEAR     71  69  93 CALM      30.11R
APALACHICOLA   PTCLDY    76  69  79 S3        30.10S

STATION/POSITION SKY/WX   TEMP    WIND        PRES    WAVE   SWELL
                          AIR SEA DIR/SP/G            HT/PER HT/PER
                          (F)     (DEG/KT/KT) (MB)    (FT/S) (FT/S)
30.1N   87.6W              82 83  210/ 10/ 10 1018.9R   2/ 3   2/ 6
29.2N   88.2W              81 84  160/  6/ 10 1020.1R   1/ 5   2/ 5
28.8N   86.0W              82 84  150/ 12/ 14 1019.7R   2/ 8   2/ 8
PANAMA CITY BEAC           80 82  220/  6/  7 1019.2F
CAPE SAN BLAS    NOT AVBL
TOWER C                    80     190/  8/  9 1019.5R
28.5N   84.5W              84 85  180/  6/  8 1019.5F   1/10   2/10

$$
FLZ011-016>038-118-127-128-134-139-239-061100-
NORTH FLORIDA

CITY           SKY/WX    TMP DP  RH WIND       PRES   REMARKS
MARIANNA       PTCLDY    71  71 100 CALM      30.11R
TALLAHASSEE    PTCLDY    70  68  93 SE3       30.11S
PERRY          CLEAR     69  69 100 CALM      30.12F
CROSS CITY       N/A     69  67  93 CALM      30.13R
LAKE CITY      FAIR      64  64 100 CALM      30.14R
GAINESVILLE    PTCLDY    66  65  96 CALM      30.14S
MAYPORT NAS    PTCLDY    72  70  93 SW5       30.13S
JACKSONVILLE   CLEAR     67  67 100 CALM      30.13R
JAX NAS        PTCLDY    74  68  81 CALM      30.14S
JAX CRAIG      CLEAR     71  69  93 CALM      30.13S
JAX CECIL      PTCLDY    64  64 100 CALM      30.14S FOG
FERNANDINA BEA FAIR      73  70  88 W3        30.12S
ST AUGUSTINE   PTCLDY    70  70 100 CALM      30.14S

STATION/POSITION SKY/WX   TEMP    WIND        PRES    WAVE   SWELL
                          AIR SEA DIR/SP/G            HT/PER HT/PER
                          (F)     (DEG/KT/KT) (MB)    (FT/S) (FT/S)
SHELL POINT                75     320/  2/  2   N/A
KEATON BEACH               80     150/  2/  4 1019.7R
CEDAR KEY                  80     320/  2/  3 1020.3R
FERNANDINA                 72 80  230/  4/  6 1019.5F
30.7N   81.3W                 77                N/A     2/ 9
MAYPORT                    72 78  260/  5/  6 1020.5F
31.4N   80.9W              76 79  250/ 10/ 12 1020.5S   2/ 9   2/ 9
ST AUGUSTINE               70 71     CALM     1021.4S

$$
FLZ040-043>046-052-053-057-058-063-144-061100-
INTERIOR CENTRAL FLORIDA

CITY           SKY/WX    TMP DP  RH WIND       PRES   REMARKS
OCALA          CLEAR     68  64  88 SE3       30.13F
THE VILLAGES     N/A    N/A N/A N/A CALM      30.04S HAZE
LEESBURG       CLEAR     72  70  93 NW5       30.14S
SANFORD        PTCLDY    71  69  93 N3        30.13R
ORLANDO EXEC   PTCLDY    73  71  93 NW3       30.13S
ORLANDO INTL   MOCLDY    73  70  90 CALM      30.13S
WINTER HAVEN   PTCLDY    73  71  93 NW3       30.14R
LAKELAND       PTCLDY    72  70  94 CALM      30.14S
OKEECHOBEE     CLOUDY    70  68  94 N6        30.15R

$$
FLZ041-047-054-059-064-141-147-061100-
EAST CENTRAL FLORIDA

CITY           SKY/WX    TMP DP  RH WIND       PRES   REMARKS
DAYTONA BEACH  MOCLDY    72  70  93 N3        30.13S
DELAND           N/A     70  68  94 NW3       30.15R
JFK SPACE CTR  LGT RAIN  70  68  94 S5        30.13R
CAPE CANAVERAL CLOUDY    73  72  96 N1        30.13R
PATRICK AFB    CLOUDY    77  67  72 N5        30.13R
MELBOURNE      CLOUDY    74  67  78 NE6       30.13S
VERO BEACH     CLOUDY    73  67  81 N6        30.14R
FT PIERCE        N/A     73  68  84 NW6       30.14R
STUART         CLOUDY    79  68  69 E6        30.11S

STATION/POSITION SKY/WX   TEMP    WIND        PRES    WAVE   SWELL
                          AIR SEA DIR/SP/G            HT/PER HT/PER
                          (F)     (DEG/KT/KT) (MB)    (FT/S) (FT/S)
28.5N   80.2W              79 80  190/  2/  4 1020.3R
28.9N   78.5W              81 83  180/  4/  6 1020.1F
TRIDENT PIER               75 80  330/  1/  3 1020.9R
28.4N   80.5W                 78                N/A     2/ 8
27.5N   80.2W                 77                N/A     1/ 7

$$
FLZ050-056-061-142-242-148-248-149-249-151-251-155-255-
160-260-061100-
WEST CENTRAL FLORIDA

CITY           SKY/WX    TMP DP  RH WIND       PRES   REMARKS
CRYSTAL RIVER  FAIR      68  68 100 CALM      30.13S
INVERNESS      FAIR     N/A N/A N/A CALM      30.14S
BROOKSVILLE    CLEAR     71  69  93 CALM      30.14S
ZEPHYRHILLS    FAIR      64  64 100 CALM      30.14R
CLEARWATER     PTCLDY    62  32  32 CALM      30.12S
TAMPA INTL     PTCLDY    78  70  76 CALM      30.13R
TAMPA EXEC     PTCLDY    72  70  94 CALM      30.13S
PLANT CITY     PTCLDY    72  72 100 CALM      30.14F
MACDILL AFB    PTCLDY    73  72  97 NE1       30.12S
PETER O KNIGHT PTCLDY    79  72  78 CALM      30.12S
ST PETERSBURG  PTCLDY    78  71  79 SW5       30.10S
SARASOTA       PTCLDY    71  70  96 E3        30.12R
VENICE         FAIR      72  72 100 NE6       30.14R

STATION/POSITION SKY/WX   TEMP    WIND        PRES    WAVE   SWELL
                          AIR SEA DIR/SP/G            HT/PER HT/PER
                          (F)     (DEG/KT/KT) (MB)    (FT/S) (FT/S)
CEDAR KEY                  80     320/  2/  3 1020.3R
28.5N   84.5W              84 85  180/  6/  8 1019.5F   1/10   2/10
27.3N   84.2W                 86                N/A     3/ 5
CLEARWATER BEACH NOT AVBL
MIDDLE TAMPA BAY                   CALM  /  2 1020.2F
VENICE                     74 88   50/  4/  4 1020.0R

$$
FLZ066-069-070-075>078-162-262-165-265-061100-
SOUTHWEST FLORIDA AND KEYS

CITY           SKY/WX    TMP DP  RH WIND       PRES   REMARKS
PUNTA GORDA    MOCLDY    72  70  93 N5        30.15R
FT MYERS       MOCLDY    73  72  96 CALM      30.12R
SOUTHWEST INTL MOCLDY    72  70  93 N3        30.13R
NAPLES         MOCLDY   N/A N/A N/A E6        30.15
MARCO ISLAND   SUNNY     73  66  78 NE7       30.10R
MARATHON       CLOUDY    81  78  91 E7        30.11F
KEY WEST NAS   CLOUDY    81  76  84 E17       30.09F
KEY WEST INTL  CLEAR     82  78  88 E15G21    30.09F

STATION/POSITION SKY/WX   TEMP    WIND        PRES    WAVE   SWELL
                          AIR SEA DIR/SP/G            HT/PER HT/PER
                          (F)     (DEG/KT/KT) (MB)    (FT/S) (FT/S)
VENICE                     74 88   50/  4/  4 1020.0R
NAPLES                        87              1019.6R
26.0N   85.6W              84 86   80/ 10/ 12 1019.3F   3/ 5   2/ 5
DRY TORTUGAS               84     120/ 15/ 16 1018.7R
NW FL BAY                  79      70/ 14/ 16 1019.9
SAND KEY                   82      80/ 19/ 23 1019.0S
SOMBRERO KEY               82      80/ 16/ 17 1019.9F
LONG KEY                   82 86   80/ 12/ 14 1020.7S
MOLASSES REEF              83 85  100/ 14/ 16 1019.9S

$$
FLZ067-068-071>074-168-172>174-061100-
SOUTHEAST FLORIDA

CITY           SKY/WX    TMP DP  RH WIND       PRES   REMARKS
W PALM BEACH   CLOUDY    81  71  71 SE10      30.10S
FT LAUDER-EXEC MOCLDY    78  72  81 SE10      30.10F
FT LAUDERDALE  MOCLDY    80  75  84 E10       30.11F
POMPANO BEACH  MOCLDY    80  71  74 SE14      30.09F
PEMBROKE PINES MOCLDY    77  69  76 E6        30.13F
OPA LOCKA      CLOUDY    76  70  82 E9        30.11F
MIAMI          CLOUDY    77  71  82 E8        30.12F
WEST KENDALL   CLOUDY    75  71  87 E8        30.12S
HOMESTEAD      CLOUDY    76  72  87 E5        30.12F

STATION/POSITION SKY/WX   TEMP    WIND        PRES    WAVE   SWELL
                          AIR SEA DIR/SP/G            HT/PER HT/PER
                          (F)     (DEG/KT/KT) (MB)    (FT/S) (FT/S)
PORT EVERGLADES            80      60/  9/ 11 1019.8F
VIRGINIA KEY               79 88   40/  6/  8 1019.9F
LAKE WORTH                 81 85  130/ 15/ 17 1018.8F
SETTLEMENT POINT           81     140/  5/  7 1021.1F

$$




USA.gov is the U.S. government's official web portal to all federal, state and local government web resources and services.